Flag for Libya Weather past 2 weeks in Tripoli, Libya

Now
70 °F

Mild.


Feels Like: 70 °F
Forecast: 71 / 80 °F
Wind: No wind

Location: Djerba Mellita

Current Time: Oct 20, 2014 at 6:54:33 AM

Latest Report: Oct 20, 2014 at 5:00 AM


Visibility: N/A

Pressure: 30.15 "Hg

Humidity: 94%

Dew point: 68 °F

Location of TripoliLocation

Historic Weather in Tripoli — Graph

°F

Tripoli temperature yesterday

Maximum temperature yesterday: 84 °F (at 10:30 AM)
Minimum temperature yesterday: 66 °F (at 6:00 AM)
Average temperature yesterday: 76 °F

Past Weeks' High & Low Weather Summary

 TemperatureHumidityPressure
High104 °F (Oct 14, 2:30 PM)100% (Oct 18, 8:00 AM)30.21 "Hg (Oct 18, 8:00 AM)
Low66 °F (Oct 19, 6:00 AM)9% (Oct 14, 2:30 PM)29.71 "Hg (Oct 15, 3:00 AM)
Average80 °F60%30.00 "Hg
* Reported Oct 5 5:00 AM — Oct 20 5:00 AM, Tripoli, Weather by CustomWeather, © 2014

Note: Actual official high and low records may vary slightly from our data, if they occured in-between our weather recording intervals... More about our weather records

Advertising

Tripoli weather history for previous 24 hours

 ConditionsComfort  
Time TempWeatherWind HumidityBarometerVisibility
5:00 AM
Oct 20
70 °FMild.No wind94%30.15 "HgN/A
4:30 AM70 °FClear.2 mph94%30.15 "Hg3 mi
4:00 AM70 °FClear.3 mph94%30.15 "Hg3 mi
3:00 AM70 °FClear.2 mph94%30.18 "Hg3 mi
2:30 AM72 °FClear.No wind88%30.18 "Hg3 mi
2:00 AM72 °FClear.No wind88%30.18 "Hg3 mi
1:30 AM72 °FClear.No wind88%30.18 "Hg3 mi
1:00 AM72 °FClear.No wind88%30.18 "Hg3 mi
12:30 AM72 °FClear.No wind88%30.18 "Hg4 mi
12:00 AM73 °FClear.2 mph83%30.18 "Hg4 mi
11:30 PM
Oct 19
73 °FClear.No wind89%30.18 "Hg4 mi
11:00 PM73 °FClear.No wind89%30.18 "Hg5 mi
10:30 PM73 °FClear.No wind89%30.18 "Hg10 mi
9:00 PM77 °FClear.2 mph79%30.18 "Hg10 mi
8:30 PM77 °FPassing clouds.3 mph79%30.18 "HgN/A
8:00 PM77 °FClear.6 mph79%30.15 "Hg10 mi
7:00 PM79 °FClear.8 mph79%30.15 "Hg10 mi
6:30 PM79 °FSunny.9 mph79%30.15 "Hg10 mi
6:00 PM81 °FSunny.9 mph70%30.15 "Hg10 mi
5:30 PM81 °FSunny.10 mph74%30.15 "Hg10 mi
5:00 PM81 °FSunny.12 mph70%30.15 "Hg10 mi
4:30 PM81 °FSunny.12 mph70%30.15 "Hg10 mi
3:30 PM82 °FSunny.12 mph66%30.15 "Hg10 mi
3:00 PM82 °FPassing clouds.13 mph70%30.15 "HgN/A
2:30 PM82 °FSunny.12 mph66%30.15 "Hg10 mi
2:00 PM84 °FSunny.10 mph66%30.18 "Hg10 mi
1:30 PM84 °FPassing clouds.12 mph66%30.18 "HgN/A
1:00 PM84 °FSunny.10 mph66%30.18 "Hg10 mi
12:30 PM84 °FSunny.12 mph66%30.18 "Hg10 mi
12:00 PM84 °FSunny.10 mph62%30.18 "Hg10 mi
11:30 AM84 °FPassing clouds.12 mph62%30.21 "HgN/A
11:00 AM84 °FPassing clouds.7 mph51%30.18 "HgN/A
10:30 AM84 °FSunny.7 mph55%30.18 "Hg10 mi
10:00 AM82 °FSunny.3 mph58%30.18 "Hg10 mi
9:30 AM79 °FPassing clouds.3 mph74%30.18 "HgN/A
9:00 AM75 °FClear.3 mph83%30.18 "Hg5 mi
8:30 AM72 °FClear.3 mph94%30.18 "Hg3 mi
8:00 AM70 °FFog.3 mph94%30.15 "Hg1 mi
7:30 AM68 °FFog.2 mph94%30.15 "Hg1 mi
7:00 AM68 °FFog.No wind94%30.15 "Hg1 mi
6:30 AM68 °FFog.2 mph94%30.15 "Hg1 mi
6:00 AM66 °FClear.2 mph94%30.15 "Hg3 mi
Weather by CustomWeather, © 2014

See weather overviewHow to use our weather pages